Weather History for New Delhi, India

Change the Weather History Date:

Monday, December 9, 2013

  Actual Average Record
Temperature  
Mean Temperature 62 °F -  
Max Temperature 75 °F 68 °F 82 °F (2008)
Min Temperature 50 °F 46 °F 39 °F (1996)
Degree Days  
Heating Degree Days 2    
Growing Degree Days 12 (Base 50)    
Moisture  
Dew Point 51 °F    
Average Humidity 75    
Maximum Humidity 100    
Minimum Humidity 41    
Precipitation  
Precipitation 0.00 in - - ()
Sea Level Pressure  
Sea Level Pressure 29.92 in    
Wind  
Wind Speed 1 mph ()    
Max Wind Speed 8 mph    
Max Gust Speed -    
Visibility 0.6 miles    
Events Fog    
Averages and records for this station are not official NWS values.
T = Trace of Precipitation, MM = Missing Value Source: Averaged Metar Reports

Daily Weather History Graph

Daily Weather History Graph

Search for Another Location

Airport:

Trip Planner

Search our weather history database for the weather conditions in past years. The results will help you decide how hot, cold, wet, or windy it might be!

Date:

Astronomy

Dec. 09, 2013 Rise Set
Actual Time 7:02 AM IST 5:25 PM IST
Civil Twilight 6:36 AM IST 5:50 PM IST
Nautical Twilight 6:07 AM IST 6:20 PM IST
Astronomical Twilight 5:38 AM IST 6:49 PM IST
Moon 12:06 PM IST (12/9) 12:21 AM IST (12/10)
Length of Visible Light 11h 14m
Length of Day
10h 22m
Waxing Crescent, 46% of the Moon is Illuminated
Dec 9
Waxing Crescent
Dec 9
First Quarter
Dec 17
Full
Dec 25
Last Quarter
Jan 1
New

Hourly Weather History & Observations

Time (IST) Temp. Dew Point Humidity Pressure Visibility Wind Dir Wind Speed Gust Speed Precip Events Conditions
12:00 AM 55.4 °F 51.8 °F 88% 29.92 in 0.4 mi Calm Calm - N/A Fog Shallow Fog
12:30 AM 55.4 °F 51.8 °F 88% 29.92 in 0.4 mi Calm Calm - N/A Fog Shallow Fog
1:00 AM 53.6 °F 51.8 °F 94% 29.92 in 0.3 mi Calm Calm - N/A Fog Fog
1:30 AM 53.6 °F 51.8 °F 94% 29.92 in 0.2 mi Calm Calm - N/A Fog Fog
2:00 AM 53.6 °F 51.8 °F 94% 29.92 in 0.2 mi Calm Calm - N/A Fog Fog
2:30 AM 53.6 °F 51.8 °F 94% 29.92 in 0.2 mi Calm Calm - N/A Fog Fog
3:00 AM 53.6 °F 51.8 °F 94% 29.92 in 0.2 mi Calm Calm - N/A Fog Fog
3:30 AM 53.6 °F 51.8 °F 94% 29.92 in 0.2 mi Calm Calm - N/A Fog Fog
4:00 AM 53.6 °F 51.8 °F 94% 29.92 in 0.2 mi Calm Calm - N/A Fog Fog
4:30 AM 51.8 °F 50.0 °F 94% 29.92 in 0.2 mi Calm Calm - N/A Fog Fog
5:00 AM 51.8 °F 50.0 °F 94% 29.92 in 0.3 mi Calm Calm - N/A Fog Fog
5:30 AM 51.8 °F 50.0 °F 94% 29.92 in 0.2 mi Calm Calm - N/A Fog Fog
6:00 AM 51.8 °F 50.0 °F 94% 29.92 in 0.2 mi Calm Calm - N/A Fog Fog
6:30 AM 51.8 °F 50.0 °F 94% 29.92 in 0.2 mi Calm Calm - N/A Fog Fog
7:00 AM 51.8 °F 50.0 °F 94% 29.92 in 0.2 mi Calm Calm - N/A Fog Fog
7:30 AM 50.0 °F 50.0 °F 100% 29.95 in 0.2 mi Calm Calm - N/A Fog Fog
8:00 AM 51.8 °F 50.0 °F 94% 29.95 in 0.2 mi Calm Calm - N/A Fog Fog
8:30 AM 53.6 °F 53.6 °F 100% 29.95 in 0.3 mi Calm Calm - N/A Fog Fog
9:00 AM 55.4 °F 55.4 °F 100% 29.95 in 0.3 mi Calm Calm - N/A Fog Fog
9:30 AM 59.0 °F 55.4 °F 88% 29.98 in 0.4 mi Calm Calm - N/A Fog Shallow Fog
10:00 AM 60.8 °F 53.6 °F 77% 29.98 in 0.4 mi West 3.5 mph - N/A Fog Shallow Fog
11:00 AM 68.0 °F 53.6 °F 60% 29.95 in 0.6 mi WNW 3.5 mph - N/A   Smoke
11:30 AM 69.8 °F 53.6 °F 56% 29.95 in 0.6 mi NW 4.6 mph - N/A   Smoke
12:00 PM 71.6 °F 53.6 °F 53% 29.95 in 0.7 mi NW 4.6 mph - N/A   Smoke
12:30 PM 73.4 °F 53.6 °F 50% 29.92 in 0.8 mi NW 5.8 mph - N/A   Smoke
1:00 PM 73.4 °F 51.8 °F 47% 29.92 in 0.9 mi NW 6.9 mph - N/A   Smoke
2:00 PM 71.6 °F 51.8 °F 50% 29.89 in 1.1 mi NW 5.8 mph - N/A   Smoke
2:30 PM 75.2 °F 51.8 °F 44% 29.89 in 1.0 mi NW 6.9 mph - N/A   Smoke
3:30 PM 75.2 °F 50.0 °F 41% 29.89 in 1.1 mi WNW 8.1 mph - N/A   Smoke
4:00 PM 73.4 °F 50.0 °F 44% 29.86 in 1.1 mi WNW 8.1 mph - N/A   Smoke
4:30 PM 73.4 °F 50.0 °F 44% 29.86 in 1.2 mi NW 6.9 mph - N/A   Smoke
5:00 PM 71.6 °F 48.2 °F 43% 29.86 in 1.3 mi NW 8.1 mph - N/A   Smoke
5:30 PM 69.8 °F 48.2 °F 46% 29.86 in 1.3 mi West 4.6 mph - N/A   Smoke
6:00 PM 68.0 °F 50.0 °F 52% 29.89 in 1.3 mi West 3.5 mph - N/A   Smoke
6:30 PM 66.2 °F 50.0 °F 56% 29.89 in 1.1 mi Calm Calm - N/A   Smoke
8:00 PM 60.8 °F 50.0 °F 68% 29.92 in 0.7 mi Calm Calm - N/A   Smoke
8:30 PM 60.8 °F 50.0 °F 68% 29.92 in 0.7 mi Calm Calm - N/A   Smoke
9:00 PM 60.8 °F 50.0 °F 68% 29.92 in 0.7 mi Calm Calm - N/A   Smoke
9:30 PM 60.8 °F 50.0 °F 68% 29.92 in 0.6 mi Calm Calm - N/A   Smoke
10:00 PM 59.0 °F 50.0 °F 72% 29.95 in 0.6 mi Calm Calm - N/A   Smoke
11:30 PM 57.2 °F 50.0 °F 77% 29.92 in 0.4 mi Calm Calm - N/A   Smoke